Change the Weather History Date:

Monday, October 14, 2013

  Actual Average Record
Temperature  
Mean Temperature 46 °F -  
Max Temperature 66 °F 63 °F 81 °F (1954)
Min Temperature 28 °F 40 °F 22 °F (1953)
Degree Days  
Heating Degree Days 19    
Moisture  
Dew Point 35 °F    
Average Humidity 89    
Maximum Humidity 100    
Minimum Humidity 44    
Precipitation  
Precipitation 0.00 in - - ()
Sea Level Pressure  
Sea Level Pressure 30.35 in    
Wind  
Wind Speed 0 mph (SE)    
Max Wind Speed 7 mph    
Max Gust Speed -    
Visibility 3 miles    
Events Fog    
Averages and records for this station are not official NWS values.
T = Trace of Precipitation, MM = Missing Value Source: NWS Daily Summary

Daily Weather History Graph

Daily Weather History Graph

Search for Another Location

Airport or City:

Trip Planner

Search our weather history database for the weather conditions in past years. The results will help you decide how hot, cold, wet, or windy it might be!

Date:

Astronomy

Oct. 14, 2013 Rise Set
Actual Time 6:55 AM EDT 6:03 PM EDT
Civil Twilight 6:27 AM EDT 6:31 PM EDT
Nautical Twilight 5:55 AM EDT 7:04 PM EDT
Astronomical Twilight 5:22 AM EDT 7:36 PM EDT
Moon 3:35 PM EDT (10/14) 2:04 AM EDT (10/14)
Length of Visible Light 12h 04m
Length of Day
11h 08m
Waxing Gibbous, 79% of the Moon is Illuminated
Oct 14
Waxing Gibbous
Oct 18
Full
Oct 26
Last Quarter
Nov 3
New
Nov 10
First Quarter

Hourly Weather History & Observations

Time (EDT) Temp. Windchill Dew Point Humidity Pressure Visibility Wind Dir Wind Speed Gust Speed Precip Events Conditions
12:14 AM 34.0 °F - 32.0 °F 92% 30.41 in 1.0 mi Calm Calm - N/A   Clear
12:39 AM 34.0 °F - 33.1 °F 96% 30.41 in 0.8 mi Calm Calm - N/A   Mostly Cloudy
12:43 AM 35.1 °F - 33.1 °F 92% 30.41 in 1.5 mi Calm Calm - N/A   Mostly Cloudy
12:52 AM 35.1 °F - 34.0 °F 96% 30.41 in 3.0 mi Calm Calm - N/A   Overcast
1:29 AM 35.1 °F - 33.1 °F 92% 30.40 in 6.0 mi Calm Calm - N/A   Scattered Clouds
1:44 AM 34.0 °F - 32.0 °F 92% 30.40 in 1.2 mi Calm Calm - N/A   Partly Cloudy
1:52 AM 35.1 °F - 33.1 °F 92% 30.40 in 0.8 mi Calm Calm - N/A   Scattered Clouds
1:55 AM 35.1 °F - 33.1 °F 92% 30.40 in 1.8 mi Calm Calm - N/A   Mostly Cloudy
1:57 AM 35.1 °F - 33.1 °F 92% 30.40 in 4.0 mi Calm Calm - N/A   Mostly Cloudy
2:00 AM 35.1 °F - 33.1 °F 92% 30.39 in 1.8 mi Calm Calm - N/A   Mostly Cloudy
2:08 AM 35.1 °F - 33.1 °F 92% 30.39 in 1.2 mi Calm Calm - N/A   Mostly Cloudy
2:10 AM 35.1 °F - 33.1 °F 92% 30.39 in 2.0 mi Calm Calm - N/A   Mostly Cloudy
2:17 AM 35.1 °F - 33.1 °F 92% 30.38 in 6.0 mi Calm Calm - N/A   Mostly Cloudy
2:27 AM 34.0 °F - 32.0 °F 92% 30.38 in 4.0 mi Calm Calm - N/A   Scattered Clouds
2:45 AM 33.1 °F - 30.9 °F 92% 30.37 in 2.0 mi Calm Calm - N/A   Clear
2:52 AM 33.1 °F - 30.9 °F 92% 30.38 in 2.5 mi Calm Calm - N/A   Clear
3:03 AM 33.1 °F - 30.9 °F 92% 30.37 in 1.2 mi Calm Calm - N/A   Clear
3:11 AM 32.0 °F - 30.9 °F 96% 30.37 in 0.8 mi Calm Calm - N/A   Clear
3:31 AM 32.0 °F - 30.0 °F 92% 30.37 in 0.5 mi Calm Calm - N/A Fog Fog
3:41 AM 32.0 °F - 30.0 °F 92% 30.37 in 1.2 mi Calm Calm - N/A   Partly Cloudy
3:43 AM 32.0 °F - 30.0 °F 92% 30.37 in 2.5 mi Calm Calm - N/A   Partly Cloudy
3:50 AM 32.0 °F - 30.2 °F 93% 30.37 in 1.2 mi Calm Calm - N/A   Partly Cloudy
3:52 AM 32.0 °F - 30.0 °F 92% 30.37 in 1.0 mi Calm Calm - N/A   Mist
3:58 AM 32.0 °F 27.5 °F 30.0 °F 92% 30.37 in 1.0 mi ESE 4.6 mph - N/A   Clear
4:02 AM 34.0 °F 28.8 °F 32.0 °F 92% 30.37 in 2.5 mi ESE 5.8 mph - N/A   Clear
4:09 AM 34.0 °F 31.0 °F 33.1 °F 96% 30.37 in 10.0 mi ESE 3.5 mph - N/A   Clear
4:27 AM 32.0 °F - 30.0 °F 92% 30.37 in 1.2 mi Calm Calm - N/A   Partly Cloudy
4:34 AM 30.9 °F - 30.0 °F 96% 30.37 in 0.5 mi Calm Calm - N/A Fog Light Freezing Fog
4:40 AM 30.9 °F - 30.0 °F 96% 30.37 in 1.8 mi Calm Calm - N/A   Scattered Clouds
4:43 AM 30.9 °F - 30.0 °F 96% 30.37 in 3.0 mi Calm Calm - N/A   Scattered Clouds
4:52 AM 30.9 °F - 30.9 °F 100% 30.37 in 4.0 mi Calm Calm - N/A   Scattered Clouds
5:08 AM 30.9 °F - 30.0 °F 96% 30.37 in 1.2 mi Calm Calm - N/A   Partly Cloudy
5:17 AM 30.9 °F - 28.9 °F 92% 30.37 in 2.0 mi Calm Calm - N/A   Clear
5:24 AM 30.0 °F - 28.0 °F 92% 30.37 in 4.0 mi Calm Calm - N/A   Clear
5:48 AM 30.2 °F - 30.2 °F 100% 30.37 in 1.5 mi Calm Calm - N/A   Clear
5:52 AM 30.9 °F - 30.0 °F 96% 30.38 in 1.0 mi Calm Calm - N/A   Clear
6:05 AM 30.0 °F - 28.0 °F 92% 30.38 in 1.5 mi Calm Calm - N/A   Clear
6:12 AM 30.0 °F - 27.0 °F 88% 30.38 in 0.8 mi Calm Calm - N/A   Clear
6:25 AM 30.0 °F - 28.0 °F 92% 30.37 in 0.5 mi Calm Calm - N/A Fog Light Freezing Fog
6:52 AM 28.9 °F - 28.0 °F 96% 30.38 in 0.5 mi Calm Calm - N/A Fog Light Freezing Fog
7:00 AM 30.0 °F - 28.0 °F 92% 30.38 in 1.2 mi Calm Calm - N/A   Scattered Clouds
7:08 AM 28.9 °F - 28.0 °F 96% 30.38 in 0.8 mi Calm Calm - N/A   Mist
7:13 AM 30.0 °F - 28.0 °F 92% 30.38 in 1.2 mi Calm Calm - N/A   Partly Cloudy
7:16 AM 30.0 °F - 28.0 °F 92% 30.38 in 2.0 mi Calm Calm - N/A   Partly Cloudy
7:25 AM 30.9 °F - 28.9 °F 92% 30.38 in 0.8 mi Calm Calm - N/A   Mist
7:50 AM 33.8 °F - 32.0 °F 93% 30.38 in 1.2 mi Calm Calm - N/A   Scattered Clouds
7:52 AM 34.0 °F - 33.1 °F 96% 30.39 in 2.0 mi Calm Calm - N/A   Scattered Clouds
8:00 AM 35.1 °F - 34.0 °F 96% 30.38 in 6.0 mi Calm Calm - N/A   Partly Cloudy
8:52 AM 43.0 °F - 39.9 °F 89% 30.38 in 10.0 mi Calm Calm - N/A   Clear
9:52 AM 54.0 °F - 45.0 °F 72% 30.38 in 10.0 mi Calm Calm - N/A   Clear
10:52 AM 57.0 °F - 46.0 °F 67% 30.36 in 10.0 mi East 3.5 mph - N/A   Clear
11:52 AM 60.1 °F - 44.1 °F 55% 30.35 in 10.0 mi Calm Calm - N/A   Clear
12:52 PM 62.1 °F - 43.0 °F 50% 30.31 in 10.0 mi Calm Calm - N/A   Clear
1:52 PM 64.9 °F - 43.0 °F 45% 30.29 in 10.0 mi Calm Calm - N/A   Clear
2:52 PM 64.9 °F - 43.0 °F 45% 30.28 in 10.0 mi Calm Calm - N/A   Clear
3:52 PM 64.9 °F - 44.1 °F 47% 30.26 in 10.0 mi SE 3.5 mph - N/A   Clear
4:52 PM 62.1 °F - 39.9 °F 44% 30.26 in 10.0 mi South 6.9 mph - N/A   Clear
5:52 PM 57.9 °F - 46.0 °F 65% 30.27 in 10.0 mi South 3.5 mph - N/A   Clear
6:52 PM 48.9 °F - 45.0 °F 86% 30.28 in 10.0 mi Calm Calm - N/A   Clear
7:52 PM 46.9 °F - 44.1 °F 90% 30.29 in 10.0 mi Calm Calm - N/A   Clear
8:50 PM 46.4 °F - 44.6 °F 93% 30.29 in 1.5 mi Calm Calm - N/A   Clear
8:52 PM 45.0 °F - 43.0 °F 93% 30.29 in 1.0 mi Calm Calm - N/A   Clear
9:00 PM 44.1 °F 42.5 °F 42.1 °F 93% 30.29 in 2.0 mi SE 3.5 mph - N/A   Clear
9:07 PM 44.1 °F - 42.1 °F 93% 30.29 in 3.0 mi Calm Calm - N/A   Clear
9:47 PM 44.6 °F - 42.8 °F 93% 30.29 in 1.8 mi Calm Calm - N/A   Clear
9:52 PM 45.0 °F - 43.0 °F 93% 30.29 in 2.0 mi Calm Calm - N/A   Clear
9:58 PM 43.0 °F - 42.1 °F 97% 30.29 in 1.2 mi Calm Calm - N/A   Clear
10:09 PM 44.1 °F - 42.1 °F 93% 30.28 in 2.5 mi Calm Calm - N/A   Clear
10:23 PM 44.1 °F - 42.1 °F 93% 30.28 in 6.0 mi Calm Calm - N/A   Clear
10:52 PM 43.0 °F - 41.0 °F 93% 30.28 in 3.0 mi Calm Calm - N/A   Clear
10:56 PM 43.0 °F - 41.0 °F 93% 30.28 in 1.8 mi Calm Calm - N/A   Clear
11:03 PM 42.1 °F - 41.0 °F 96% 30.28 in 1.0 mi Calm Calm - N/A   Clear
11:10 PM 41.0 °F - 41.0 °F 100% 30.28 in 0.5 mi Calm Calm - N/A Fog Fog
11:41 PM 43.0 °F - 41.0 °F 93% 30.28 in 1.5 mi Calm Calm - N/A   Clear
11:43 PM 42.1 °F - 41.0 °F 96% 30.28 in 3.0 mi Calm Calm - N/A   Clear
11:52 PM 41.0 °F - 39.0 °F 93% 30.27 in 4.0 mi Calm Calm - N/A   Clear